Regional Weather Roundup
Issued by NWS Charleston, SC

Current Version | Previous Version | Text Only | Print | Product List | Glossary Off
Versions: 1 2 3 4 5 6 7 8 9 10 11 12 13 14 15 16 17 18 19 20 21 22 23 24 25 26 27 28 29 30 31 32 33 34 35 36 37 38 39 40 41 42 43 44 45 46 47 48 49 50

000
ASUS42 KCHS 271028
RWRCHS

REGIONAL WEATHER ROUNDUP
NATIONAL WEATHER SERVICE CHARLESTON SC
600 AM EDT SAT AUG 27 2016

NOTE: "FAIR" INDICATES FEW OR NO CLOUDS BELOW 12,000 FEET WITH NO
SIGNIFICANT WEATHER AND/OR OBSTRUCTIONS TO VISIBILITY.

NOT ALL STATIONS ARE QUALITY CONTROLLED. USE DATA WITH CAUTION...
ESPECIALLY DEWPOINT OBSERVATIONS.

SCZ027-030-031-034>040-042>050-271100-
...SOUTHEAST SOUTH CAROLINA...

CITY           SKY/WX    TMP DP  RH WIND       PRES   REMARKS
N CHARLESTON   CLEAR     73  70  90 N5        30.06R
WATERFRONT PRK   N/A     78  75  90 N7        30.02S
MOUNT PLEASANT FAIR      72  72 100 CALM      30.06R
JOHNS ISLAND   FAIR      73  73 100 CALM      30.06R
PINOPOLIS        N/A     79  73  83 E7        29.99S
MONCKS CORNER  FAIR      70  68  94 CALM      30.07R
SUMMERVILLE    FAIR      70  70 100 CALM      30.08R
BEAUFORT MCAS  CLEAR     72  70  93 NE6       30.05S
BEAUFORT ARPT  FAIR      77  72  83 N8        30.04S
HILTON HEAD IS NOT AVBL
WALTERBORO     SUNNY     72  72 100 CALM      30.08R
ALLENDALE      FAIR      72  70  94 CALM      30.06R

...SOUTHERN MIDLANDS AND PEE DEE...

CITY           SKY/WX    TMP DP  RH WIND       PRES   REMARKS
GEORGETOWN     FAIR      70  68  94 CALM      30.07S
KINGSTREE      FAIR      68  64  88 CALM      30.08R
ORANGEBURG     MOCLDY    72  71  97 CALM      30.07S
BARNWELL       NOT AVBL
AIKEN          FAIR      70  68  94 CALM      30.12R
MANNING        FAIR      70  68  94 CALM      30.08R
COLUMBIA       CLEAR     76  71  85 CALM      30.06S
SUMTER         CLEAR     72  70  92 NE5       30.05S
FLORENCE       CLEAR     73  70  90 CALM      30.09R
MYRTLE BEACH   CLEAR     75  64  69 N6        30.09S
N MYRTLE BEACH CLEAR     72  71  97 NE3       30.07S

$$

GAZ063-065-086>088-099>101-113>116-118-119-134>141-150-271100-
...SOUTHEAST GEORGIA...

CITY           SKY/WX    TMP DP  RH WIND       PRES   REMARKS
SAVANNAH ARPT  PTCLDY    70  68  93 N3        30.05R
HUNTER AAF     CLEAR     73  73 100 N3        30.02R
FORT STEWART   CLEAR     69  67  93 CALM      30.01S
STATESBORO     CLEAR     68  68 100 CALM      30.06R FOG
SYLVANIA       NOT AVBL
CLAXTON        FAIR      64  64 100 CALM      30.05S FOG

...CSRA...CENTRAL AND FAR SOUTHEAST GEORGIA...

CITY           SKY/WX    TMP DP  RH WIND       PRES   REMARKS
THOMSON        CLEAR     73  72  99 MISG      30.12R
AUGUSTA-BUSH   CLEAR     72  70  93 CALM      30.06R
AUGUSTA-DANIEL CLEAR     77  71  82 SE3       30.08R
SWAINSBORO     FAIR      72  70  94 E3        30.07R
VIDALIA        CLEAR     70  70 100 NE3       30.05S
EASTMAN          N/A     68  68  99 CALM      30.07S FOG
HAZLEHURST     FAIR      69  69 100 CALM      30.05R
ALMA           CLEAR     66  66 100 CALM      30.03R FOG
WAYCROSS         N/A     69  69 100 CALM      30.03R
JESUP          PTSUNNY   70  70 100 CALM      30.03S
BAXLEY         FAIR      70  70 100 CALM      30.04R
BRUNSWICK      CLOUDY    73  72  94 CALM      30.03R
SAINT SIMONS   MOCLDY    77  74  90 NE13G18   30.01R

$$

SCZ027-028-034-036>038-045-046-048>050-GAZ119-141-271100-
...LAKE AND SUPPLEMENTAL COASTAL OBSERVATIONS...

STATION/POSITION TIME  TEMP    WIND        PRES    WAVE   SWELL
                       AIR SEA DIR/SP/G            HT/PER HT/PER/DIR
                 (UTC) (F)     (DEG/KT/KT) (MB)    (FT/S) (FT/S/D)
WINYAH BAY       0900   75     340/  2     1017.0S
LAKE MURRAY      0900   80     260/  2/  4 1017.6F
ACE BASIN NERRS  0900   73        CALM     1017.0S
FORT PULASKI     1000   79 85  360/  6/  7 1017.4R
SAPELO ISLAND    1000   77      20/  3     1017.0R

$$

ANZ835-935-AMZ111-154-330-350-352-354-370-450-454-472-271100-
...C-MAN AND BUOY OBSERVATIONS...

STATION/POSITION TIME  TEMP    WIND        PRES    WAVE   SWELL
                       AIR SEA DIR/SP/G            HT/PER HT/PER/DIR
                 (UTC) (F)     (DEG/KT/KT) (MB)    (FT/S) (FT/S/D)
BUOY 41004       0950   82 83   60/ 12/ 16 1016.5R   3/10   3/100/10
BUOY 41008       0950   82 85   40/ 14/ 17 1015.8F   3/11   2/140/11
FOLLY BEACH CMAN 1000   80      20/  8/ 10 1017.9R
CAPERS NEARSHORE 0908   81 84   60/ 10/ 16 1017.0F
FRIPP NEARSHORE  1008   82 86   60/ 10/ 12 1016.4S


STATION/POSITION TIME  TEMP    WIND        PRES    WAVE   SWELL
                       AIR SEA DIR/SP/G            HT/PER HT/PER/DIR
                 (UTC) (F)     (DEG/KT/KT) (MB)    (FT/S) (FT/S/D)
5E ST. MARYS GA  1001      84                N/A     4/12   2/120/12
FRYING PAN BUOY  1000   81 85   70/  6/  8 1017.8F
BUOY 41025       0950   81 85  270/  4/  6 1019.1R   2/10   2/120/10
CAPE LOOKOUT NC  1000   80        CALM     1018.7R
BUOY 41002       0950   82 84   40/ 10/ 14 1016.6R   4/10   3/120/10
BUOY 41010       NOT AVBL
ST AUGUSTINE FL  1000   81 83   40/ 15/ 16 1015.6S


$$




USA.gov is the U.S. government's official web portal to all federal, state and local government web resources and services.